Home > Weather > Larnaca > Past weeks

Flag for Cyprus Past Weather in Larnaca, Cyprus — Yesterday and Last 2 Weeks

Now
88 °F

Sunny.


Feels Like: 88 °F
Forecast: 71 / 94 °F
Wind: 9 mph from South

Location: Larnaca Airport

Current Time: Aug 24, 2016 at 11:42:27 AM

Latest Report: Aug 24, 2016 at 11:00 AM


Visibility: 10 mi

Pressure: 29.77 "Hg

Humidity: 43%

Dew Point: 63 °F

Location of LarnacaLocation

Past Weather in Larnaca — Graph

°F

Larnaca Temperature Yesterday

Maximum temperature yesterday: 91 °F (at 3:30 PM)
Minimum temperature yesterday: 73 °F (at 5:30 AM)
Average temperature yesterday: 83 °F

High & Low Weather Summary for the Past Weeks

 TemperatureHumidityPressure
High97 °F (Aug 9, 2:30 PM)100% (Aug 10, 6:00 AM)29.83 "Hg (Aug 10, 6:00 AM)
Low72 °F (Aug 18, 5:00 AM)26% (Aug 10, 8:30 PM)29.65 "Hg (Aug 9, 3:30 PM)
Average83 °F68%29.74 "Hg
* Reported Aug 9 10:00 AM — Aug 24 10:30 AM, Larnaca, Weather by CustomWeather, © 2016

Note: Actual official high and low records may vary slightly from our data, if they occured in-between our weather recording intervals... More about our weather records

Advertising

Larnaca Weather History for the Previous 24 Hours

Scroll right to see more
 ConditionsComfort  
Time TempWeatherWind HumidityBarometerVisibility
10:30 AM
Wed, Aug 24
88 °FPassing clouds.8 mph46%29.77 "HgN/A
10:00 AM86 °FPassing clouds.8 mph46%29.77 "HgN/A
9:30 AM86 °FPassing clouds.6 mph46%29.77 "HgN/A
9:00 AM86 °FPassing clouds.5 mph52%29.77 "HgN/A
8:30 AM86 °FSunny.2 mph46%29.77 "Hg10 mi
8:00 AM81 °FSunny.2 mph42%29.77 "Hg10 mi
7:30 AM79 °FSunny.2 mph42%29.77 "Hg10 mi
7:00 AM75 °FClear.2 mph47%29.77 "Hg10 mi
6:30 AM73 °FPassing clouds.3 mph53%29.77 "HgN/A
6:00 AM75 °FPassing clouds.5 mph44%29.74 "HgN/A
5:30 AM73 °FPassing clouds.2 mph50%29.74 "HgN/A
5:00 AM75 °FClear.2 mph57%29.74 "Hg10 mi
4:30 AM75 °FClear.1 mph54%29.74 "Hg10 mi
4:00 AM75 °FClear.1 mph54%29.74 "Hg10 mi
3:30 AM77 °FClear.No wind54%29.77 "Hg10 mi
3:00 AM79 °FClear.5 mph51%29.77 "Hg10 mi
2:30 AM79 °FClear.6 mph48%29.77 "Hg10 mi
2:00 AM79 °FClear.5 mph51%29.77 "Hg10 mi
1:30 AM79 °FClear.5 mph58%29.77 "Hg10 mi
1:00 AM79 °FClear.7 mph61%29.77 "Hg10 mi
12:30 AM79 °FPassing clouds.5 mph58%29.77 "HgN/A
12:00 AM79 °FClear.No wind54%29.80 "Hg10 mi
11:30 PM
Tue, Aug 23
79 °FClear.2 mph58%29.80 "Hg10 mi
11:00 PM79 °FClear.1 mph54%29.80 "Hg10 mi
10:30 PM81 °FClear.3 mph48%29.80 "Hg10 mi
10:00 PM81 °FClear.2 mph51%29.80 "Hg10 mi
9:30 PM82 °FClear.3 mph58%29.80 "Hg10 mi
9:00 PM82 °FClear.3 mph66%29.80 "Hg10 mi
8:30 PM84 °FClear.7 mph62%29.80 "Hg10 mi
8:00 PM84 °FSunny.5 mph62%29.77 "Hg10 mi
7:30 PM84 °FSunny.5 mph62%29.77 "Hg10 mi
7:00 PM86 °FSunny.8 mph52%29.77 "Hg10 mi
6:30 PM88 °FSunny.9 mph33%29.77 "Hg10 mi
6:00 PM90 °FSunny.9 mph31%29.77 "Hg10 mi
5:30 PM90 °FPassing clouds.10 mph33%29.77 "HgN/A
5:00 PM90 °FPassing clouds.10 mph36%29.80 "HgN/A
4:30 PM91 °FPassing clouds.10 mph32%29.80 "HgN/A
4:00 PM90 °FPassing clouds.10 mph38%29.80 "HgN/A
3:30 PM91 °FPassing clouds.10 mph38%29.80 "HgN/A
3:00 PM90 °FPassing clouds.12 mph46%29.80 "HgN/A
2:30 PM90 °FPassing clouds.12 mph49%29.80 "HgN/A
2:00 PM90 °FPassing clouds.10 mph49%29.80 "HgN/A
1:30 PM88 °FPassing clouds.10 mph55%29.80 "HgN/A
1:00 PM88 °FPassing clouds.10 mph55%29.83 "HgN/A
12:30 PM88 °FPassing clouds.12 mph46%29.80 "HgN/A
12:00 PM88 °FPassing clouds.9 mph43%29.83 "HgN/A
11:30 AM88 °FPassing clouds.8 mph49%29.83 "HgN/A
11:00 AM88 °FPassing clouds.6 mph46%29.83 "HgN/A
Weather by CustomWeather, © 2016

See weather overviewHow to use our weather pages